YACHTS Weather Reports


Display with metric or nautical units.
time (UTC)temp
F
wind
direction
speed
MPH
gust
MPH
rain 1hr
in
rain 24hr
in
rain mn
in
humidity
%
barometer
mb
20260906181318 57 0 0.0 0.0 0.02 0.55 0.55 95 1017.1
20260906180805 57 0 0.0 0.0 0.06 0.55 0.55 96 1017.1
20260906180252 57 0 0.0 0.0 0.06 0.55 0.55 96 1017.1
20260906175739 57 0 0.0 0.0 0.06 0.55 0.55 96 1017.1
20260906175226 56 0 0.0 0.0 0.06 0.55 0.55 96 1017.1
20260906174713 56 0 0.0 0.0 0.06 0.55 0.55 96 1017.1
20260906174200 56 0 0.0 0.0 0.06 0.55 0.55 96 1017.0
20260906173647 56 0 0.0 0.0 0.06 0.55 0.55 96 1017.1
20260906173134 56 0 0.0 0.0 0.06 0.55 0.55 96 1017.0
20260906172621 56 0 0.0 0.0 0.06 0.55 0.55 96 1017.0
20260906172108 56 0 0.0 0.0 0.06 0.55 0.55 96 1016.9
20260906171555 55 0 0.0 0.0 0.04 0.55 0.55 95 1016.8
20260906171043 56 0 0.0 0.0 0.04 0.53 0.54 95 1016.8
20260906170529 56 0 0.0 0.0 0.00 0.50 0.50 96 1016.8
20260906170018 57 0 0.0 0.0 0.00 0.49 0.49 96 1016.7
20260906165503 57 0 0.0 0.0 0.01 0.49 0.49 96 1016.7
20260906164950 56 0 0.0 7.0 0.01 0.49 0.49 96 1016.7
20260906164437 57 274 0.0 7.0 0.01 0.49 0.49 96 1016.7
20260906163411 56 0 0.0 0.0 0.01 0.49 0.49 96 1016.5
20260906163001 55 0 0.0 0.0 0.02 0.49 0.49 95 1016.5
20260906162858 55 0 0.0 0.0 0.02 0.49 0.49 95 1016.5
20260906161833 57 0 0.0 3.0 0.02 0.49 0.49 95 1016.3
20260906161319 57 0 0.0 0.0 0.02 0.49 0.49 95 1016.3
20260906160806 57 0 0.0 0.0 0.02 0.49 0.49 95 1016.3
20260906160253 56 0 0.0 0.0 0.02 0.49 0.49 96 1016.3
20260906155740 57 0 0.0 0.0 0.04 0.48 0.49 95 1016.3
20260906155227 56 0 0.0 0.0 0.04 0.48 0.48 96 1016.3
20260906154714 55 0 0.0 0.0 0.04 0.48 0.48 96 1016.3
20260906154201 55 0 0.0 0.0 0.04 0.48 0.48 95 1016.3
20260906153648 55 0 0.0 0.0 0.06 0.48 0.48 95 1016.4
20260906153135 55 0 0.0 0.0 0.06 0.48 0.48 95 1016.3
20260906152622 55 0 0.0 0.0 0.13 0.48 0.48 95 1016.3
20260906152109 55 0 0.0 0.0 0.13 0.47 0.47 95 1016.2
20260906151556 55 0 0.0 0.0 0.18 0.47 0.47 95 1016.1
20260906151043 55 0 0.0 0.0 0.18 0.47 0.47 95 1016.2
20260906150530 54 0 0.0 0.0 0.27 0.47 0.47 95 1016.2
20260906150018 55 0 0.0 0.0 0.27 0.47 0.47 95 1016.2
20260906145504 55 0 0.0 0.0 0.29 0.46 0.46 95 1016.2
20260906144438 55 0 0.0 0.0 0.32 0.44 0.44 95 1016.2
20260906143925 54 0 0.0 0.0 0.34 0.44 0.44 95 1016.2
20260906143412 54 0 0.0 0.0 0.34 0.43 0.43 95 1016.2
20260906142859 55 0 0.0 0.0 0.30 0.41 0.41 95 1016.2
20260906142347 55 0 0.0 0.0 0.30 0.36 0.37 95 1016.3
20260906141833 54 0 0.0 0.0 0.29 0.32 0.33 95 1016.1
20260906141320 55 0 0.0 0.0 0.29 0.30 0.30 95 1016.0
20260906140807 55 0 0.0 0.0 0.20 0.28 0.28 95 1016.0
20260906140254 55 0 0.0 0.0 0.20 0.24 0.24 95 1015.9
20260906135741 55 0 0.0 0.0 0.15 0.16 0.17 95 1016.0
20260906135228 54 0 0.0 0.0 0.15 0.15 0.15 95 1015.9
20260906134715 54 0 0.0 0.0 0.12 0.14 0.14 95 1015.8
20260906134202 55 0 0.0 0.0 0.12 0.13 0.13 95 1015.8
20260906133649 54 0 0.0 0.0 0.08 0.10 0.11 95 1015.7
20260906133136 55 0 0.0 0.0 0.08 0.08 0.08 95 1015.7
20260906132623 54 0 0.0 0.0 0.04 0.07 0.07 95 1015.6
20260906132110 55 0 0.0 0.0 0.04 0.05 0.05 95 1015.7
20260906131557 54 0 0.0 0.0 0.00 0.00 0.00 95 1015.6
20260906131044 54 0 0.0 0.0 0.00 0.00 0.00 95 1015.6
20260906130531 54 0 0.0 0.0 0.00 0.00 0.00 95 1015.6
20260906130018 54 0 0.0 0.0 0.00 0.00 0.00 95 1015.5
20260906125505 54 0 0.0 0.0 0.00 0.00 0.00 95 1015.6
20260906124952 54 0 0.0 0.0 0.00 0.00 0.00 95 1015.6
20260906124439 54 0 0.0 0.0 0.00 0.00 0.00 95 1015.6
20260906123926 54 0 0.0 0.0 0.00 0.00 0.00 95 1015.5
20260906123413 54 0 0.0 0.0 0.00 0.00 0.00 95 1015.5
20260906122900 54 0 0.0 0.0 0.00 0.00 0.00 95 1015.5
20260906122347 54 0 0.0 0.0 0.00 0.00 0.00 95 1015.6
20260906121834 54 0 0.0 0.0 0.00 0.00 0.00 95 1015.6
20260906121321 54 0 0.0 0.0 0.00 0.00 0.00 95 1015.6
20260906120808 54 0 0.0 0.0 0.00 0.00 0.00 95 1015.6
20260906120255 53 0 0.0 0.0 0.00 0.00 0.00 95 1015.6
20260906115742 54 0 0.0 0.0 0.00 0.01 0.00 95 1015.5
20260906115229 54 0 0.0 0.0 0.00 0.01 0.00 95 1015.5
20260906114716 54 0 0.0 0.0 0.00 0.01 0.00 95 1015.5
20260906114203 54 0 0.0 0.0 0.00 0.01 0.00 95 1015.5
20260906113650 53 0 0.0 0.0 0.00 0.01 0.00 95 1015.4
20260906113137 53 0 0.0 0.0 0.00 0.01 0.00 95 1015.5
20260906112111 53 0 0.0 0.0 0.00 0.01 0.00 95 1015.4
20260906111558 53 0 0.0 0.0 0.00 0.01 0.00 95 1015.4
20260906111045 53 0 0.0 0.0 0.00 0.01 0.00 95 1015.4
20260906110532 53 0 0.0 0.0 0.00 0.01 0.00 95 1015.3
20260906110019 53 0 0.0 0.0 0.00 0.01 0.00 95 1015.3
20260906105506 53 0 0.0 0.0 0.00 0.01 0.00 95 1015.4
20260906104953 53 0 0.0 0.0 0.00 0.01 0.00 95 1015.4
20260906104440 53 0 0.0 0.0 0.00 0.01 0.00 95 1015.4
20260906103927 53 0 0.0 0.0 0.00 0.01 0.00 95 1015.5
20260906103414 53 0 0.0 0.0 0.00 0.01 0.00 95 1015.5
20260906102901 53 0 0.0 0.0 0.00 0.01 0.00 95 1015.5
20260906101835 53 0 0.0 0.0 0.00 0.01 0.00 95 1015.5
20260906101322 53 0 0.0 0.0 0.00 0.01 0.00 95 1015.5
20260906100809 53 0 0.0 0.0 0.00 0.01 0.00 95 1015.6
20260906100256 53 0 0.0 0.0 0.00 0.01 0.00 95 1015.5
20260906095743 53 0 0.0 0.0 0.00 0.01 0.00 95 1015.5
20260906095230 53 0 0.0 0.0 0.00 0.01 0.00 95 1015.5
20260906094717 53 0 0.0 0.0 0.00 0.01 0.00 95 1015.5
20260906094204 53 0 0.0 0.0 0.00 0.01 0.00 95 1015.5
20260906093651 53 0 0.0 0.0 0.00 0.01 0.00 95 1015.5
20260906093138 53 0 0.0 0.0 0.00 0.01 0.00 95 1015.5
20260906092112 53 0 0.0 0.0 0.00 0.01 0.00 95 1015.5
20260906091601 53 0 0.0 0.0 0.00 0.01 0.00 95 1015.4
20260906091045 53 0 0.0 0.0 0.00 0.01 0.00 95 1015.4
20260906090532 53 0 0.0 0.0 0.00 0.01 0.00 95 1015.4
20260906090019 52 0 0.0 0.0 0.00 0.01 0.00 95 1015.4
20260906085506 52 0 0.0 0.0 0.00 0.01 0.00 95 1015.4
20260906084953 52 0 0.0 0.0 0.00 0.01 0.00 95 1015.4
20260906084441 53 0 0.0 0.0 0.00 0.01 0.00 95 1015.4
20260906083928 53 0 0.0 0.0 0.00 0.01 0.00 95 1015.5
20260906083414 53 0 0.0 0.0 0.00 0.01 0.00 95 1015.5
20260906082901 52 0 0.0 0.0 0.00 0.01 0.00 95 1015.4
20260906082348 53 0 0.0 0.0 0.00 0.01 0.00 94 1015.5
20260906081835 53 0 0.0 0.0 0.00 0.01 0.00 95 1015.4
20260906081322 53 0 0.0 0.0 0.00 0.01 0.00 95 1015.4
20260906080809 53 0 0.0 0.0 0.00 0.01 0.00 95 1015.3
20260906080256 52 0 0.0 0.0 0.00 0.01 0.00 95 1015.2
20260906075743 53 0 0.0 0.0 0.00 0.01 0.00 94 1015.2
20260906075230 53 0 0.0 0.0 0.00 0.01 0.01 94 1015.2
20260906074717 53 0 0.0 0.0 0.00 0.01 0.01 94 1015.2
20260906074204 52 0 0.0 0.0 0.00 0.01 0.01 94 1015.1
20260906073651 53 0 0.0 0.0 0.00 0.01 0.01 94 1015.2
20260906073138 53 0 0.0 0.0 0.00 0.01 0.01 94 1015.2
20260906072625 53 0 0.0 0.0 0.00 0.01 0.01 94 1015.2
20260906072112 52 0 0.0 0.0 0.00 0.01 0.01 94 1015.3
20260906071559 53 0 0.0 0.0 0.00 0.01 0.01 94 1015.3
20260906071046 53 0 0.0 0.0 0.00 0.01 0.01 94 1015.3
20260906070533 53 0 0.0 0.0 0.00 0.01 0.01 94 1015.3
20260906070020 53 0 0.0 0.0 0.00 0.01 0.01 94 1015.4
20260906065507 53 0 0.0 0.0 0.00 0.01 0.01 94 1015.4
20260906064954 53 0 0.0 0.0 0.00 0.01 0.01 94 1015.4
20260906064441 52 0 0.0 0.0 0.00 0.01 0.01 94 1015.4
20260906063928 52 0 0.0 0.0 0.00 0.01 0.01 94 1015.4
20260906063416 53 0 0.0 0.0 0.00 0.01 0.01 94 1015.5
20260906062902 53 0 0.0 0.0 0.00 0.01 0.01 94 1015.4
20260906062349 52 0 0.0 0.0 0.00 0.01 0.01 94 1015.5
20260906061836 52 0 0.0 0.0 0.00 0.01 0.01 94 1015.5
20260906061323 53 0 0.0 0.0 0.00 0.01 0.01 94 1015.6
20260906060810 53 0 0.0 0.0 0.00 0.01 0.01 94 1015.6
20260906060257 53 0 0.0 0.0 0.00 0.01 0.01 94 1015.5
20260906055746 53 0 0.0 0.0 0.00 0.01 0.01 93 1015.5
20260906055231 53 0 0.0 0.0 0.00 0.01 0.01 93 1015.5
20260906054718 53 0 0.0 0.0 0.00 0.01 0.01 93 1015.6
20260906054205 53 0 0.0 0.0 0.00 0.01 0.01 93 1015.6
20260906053652 53 0 0.0 0.0 0.00 0.01 0.01 93 1015.7
20260906053139 53 0 0.0 0.0 0.00 0.01 0.01 93 1015.6
20260906052626 54 0 0.0 0.0 0.00 0.01 0.01 93 1015.5
20260906052113 53 0 0.0 0.0 0.00 0.01 0.01 93 1015.5
20260906051600 53 0 0.0 0.0 0.00 0.01 0.01 93 1015.6
20260906051048 53 0 0.0 0.0 0.00 0.01 0.01 93 1015.5
20260906050534 54 0 0.0 0.0 0.00 0.01 0.01 93 1015.5
20260906050021 54 0 0.0 0.0 0.00 0.01 0.01 93 1015.6
20260906045508 54 0 0.0 0.0 0.00 0.01 0.01 93 1015.6
20260906044955 54 0 0.0 0.0 0.00 0.01 0.01 92 1015.6
20260906044442 54 0 0.0 0.0 0.00 0.01 0.01 92 1015.5
20260906043929 54 0 0.0 0.0 0.00 0.01 0.01 92 1015.6
20260906043417 54 0 0.0 0.0 0.00 0.01 0.01 92 1015.6
20260906042903 54 0 0.0 0.0 0.00 0.01 0.01 92 1015.7
20260906042350 54 0 0.0 0.0 0.00 0.01 0.01 92 1015.5
20260906041837 54 0 0.0 0.0 0.00 0.01 0.01 92 1015.5
20260906041324 54 0 0.0 0.0 0.00 0.01 0.01 92 1015.5
20260906040811 54 0 0.0 0.0 0.00 0.01 0.01 92 1015.6
20260906040258 54 0 0.0 0.0 0.00 0.01 0.01 92 1015.6
20260906035745 54 0 0.0 0.0 0.00 0.01 0.01 92 1015.5
20260906034719 55 0 0.0 0.0 0.00 0.01 0.01 91 1015.5
20260906034206 55 0 0.0 0.0 0.00 0.01 0.01 91 1015.5
20260906033653 55 0 0.0 0.0 0.00 0.01 0.01 91 1015.5
20260906033140 55 0 0.0 0.0 0.00 0.01 0.01 91 1015.4
20260906032627 55 0 0.0 0.0 0.00 0.01 0.01 91 1015.3
20260906032114 56 0 0.0 0.0 0.00 0.01 0.01 91 1015.2
20260906031601 56 0 0.0 0.0 0.00 0.01 0.01 90 1015.2
20260906031048 56 0 0.0 0.0 0.00 0.01 0.01 90 1015.3
20260906030535 57 0 0.0 0.0 0.00 0.01 0.01 90 1015.3
20260906030022 57 0 0.0 0.0 0.00 0.01 0.01 90 1015.3
20260906025509 58 0 0.0 0.0 0.00 0.07 0.01 90 1015.3
20260906024956 58 0 0.0 0.0 0.00 0.07 0.01 90 1015.3
20260906024443 57 0 0.0 0.0 0.00 0.07 0.01 89 1015.4
20260906023930 57 0 0.0 0.0 0.00 0.07 0.01 89 1015.5
20260906023417 58 0 0.0 0.0 0.00 0.07 0.01 89 1015.5
20260906022904 58 0 0.0 0.0 0.00 0.07 0.01 89 1015.4
20260906022351 58 0 0.0 0.0 0.00 0.07 0.01 88 1015.5
20260906021838 59 0 0.0 0.0 0.00 0.07 0.01 88 1015.5
20260906021325 60 0 0.0 0.0 0.00 0.07 0.01 88 1015.5
20260906020812 60 0 0.0 0.0 0.00 0.07 0.01 88 1015.6
20260906020259 60 0 0.0 0.0 0.00 0.07 0.01 88 1015.6
20260906015746 60 0 0.0 0.0 0.00 0.07 0.01 88 1015.7
20260906014720 60 0 0.0 0.0 0.00 0.07 0.01 88 1015.7
20260906014207 59 0 0.0 0.0 0.00 0.07 0.01 88 1015.7
20260906013654 60 0 0.0 0.0 0.00 0.07 0.01 88 1015.8
20260906013141 60 0 0.0 0.0 0.00 0.07 0.01 88 1015.7
20260906012628 61 0 0.0 0.0 0.00 0.07 0.01 89 1015.7
20260906012115 60 0 0.0 0.0 0.00 0.07 0.01 89 1015.7
20260906011602 59 0 0.0 0.0 0.00 0.07 0.01 89 1015.8
20260906011049 59 0 0.0 0.0 0.00 0.07 0.01 89 1015.8
20260906010536 59 0 0.0 0.0 0.00 0.07 0.01 90 1015.8
20260906010023 59 0 0.0 0.0 0.00 0.07 0.01 90 1015.8
20260906005510 58 0 0.0 0.0 0.00 0.07 0.01 90 1015.7
20260906004957 59 0 0.0 2.0 0.00 0.07 0.01 90 1015.8
20260906004444 58 0 0.0 2.0 0.00 0.07 0.01 90 1015.7
20260906003931 59 253 0.0 2.0 0.00 0.07 0.01 90 1015.7
20260906003418 59 0 0.0 0.0 0.00 0.07 0.01 90 1015.6
20260906002905 59 0 0.0 4.0 0.00 0.07 0.01 90 1015.5
20260906002352 59 302 0.0 4.0 0.00 0.07 0.01 90 1015.6
20260906001839 59 317 2.0 4.0 0.00 0.07 0.01 90 1015.5
20260906001326 60 0 0.0 6.0 0.00 0.07 0.01 90 1015.5
20260906000813 60 320 0.0 6.0 0.00 0.07 0.01 90 1015.4
20260906000300 59 295 1.0 6.0 0.00 0.07 0.01 90 1015.4
20260905235747 60 326 0.0 5.0 0.00 0.07 0.01 90 1015.4
20260905235235 60 0 0.0 0.0 0.00 0.07 0.01 91 1015.4
20260905234721 59 0 0.0 6.0 0.00 0.07 0.01 91 1015.4
20260905234208 59 302 0.0 6.0 0.00 0.07 0.01 91 1015.4
20260905233655 60 292 2.0 6.0 0.00 0.07 0.01 91 1015.5
20260905233142 60 288 4.0 6.0 0.00 0.07 0.01 91 1015.6
20260905232629 61 295 4.0 6.0 0.00 0.07 0.01 91 1015.6
20260905232116 60 313 4.0 6.0 0.00 0.07 0.01 92 1015.7
20260905231603 59 0 0.0 7.0 0.00 0.07 0.01 92 1015.8
20260905231050 60 315 3.0 7.0 0.00 0.07 0.01 92 1015.8
20260905230537 60 302 4.0 7.0 0.00 0.07 0.01 92 1015.9
20260905230024 60 306 2.0 5.0 0.00 0.07 0.01 92 1015.9
20260905225511 60 0 2.0 2.0 0.00 0.08 0.01 93 1016.0
20260905224958 59 0 0.0 5.0 0.00 0.08 0.01 93 1016.0
20260905224445 58 0 2.0 5.0 0.00 0.08 0.01 93 1016.1
20260905223932 58 277 0.0 5.0 0.00 0.08 0.01 94 1016.0
20260905223419 58 323 3.0 5.0 0.00 0.08 0.01 93 1016.1
20260905222353 58 271 0.0 7.0 0.00 0.08 0.01 93 1016.3
20260905220814 59 266 5.0 8.0 0.00 0.08 0.01 93 1016.4
20260905220301 58 289 5.0 8.0 0.00 0.08 0.01 94 1016.3
20260905215748 58 277 3.0 7.0 0.00 0.08 0.01 94 1016.3
20260905215236 58 291 4.0 7.0 0.00 0.08 0.01 94 1016.3
20260905214722 58 280 5.0 7.0 0.00 0.08 0.01 94 1016.3
20260905214209 58 285 4.0 8.0 0.00 0.08 0.01 94 1016.4
20260905213656 58 267 2.0 8.0 0.00 0.08 0.01 94 1016.4
20260905213143 59 303 5.0 8.0 0.00 0.08 0.01 94 1016.4
20260905212630 58 302 3.0 7.0 0.00 0.08 0.01 94 1016.4
20260905212117 58 285 3.0 6.0 0.00 0.08 0.01 94 1016.5
20260905211604 58 305 3.0 7.0 0.00 0.08 0.01 94 1016.5
20260905211051 58 284 5.0 7.0 0.00 0.08 0.01 94 1016.5
20260905210538 59 275 5.0 7.0 0.00 0.08 0.01 94 1016.5
20260905210025 58 261 3.0 8.0 0.00 0.08 0.01 94 1016.5
20260905205512 58 0 0.0 8.0 0.00 0.08 0.01 94 1016.5
20260905204959 58 0 2.0 8.0 0.00 0.08 0.01 94 1016.6
20260905204445 58 330 4.0 7.0 0.00 0.08 0.01 94 1016.6
20260905203932 58 303 4.0 7.0 0.00 0.08 0.01 94 1016.5
20260905203419 58 302 2.0 7.0 0.00 0.08 0.01 94 1016.5
20260905202906 59 301 1.0 7.0 0.00 0.08 0.01 94 1016.6
20260905200815 58 292 3.0 8.0 0.00 0.08 0.01 95 1016.7
20260905200301 58 299 6.0 8.0 0.00 0.08 0.01 95 1016.7
20260905195748 58 291 5.0 7.0 0.00 0.08 0.01 95 1016.7
20260905195235 57 291 5.0 7.0 0.00 0.08 0.01 95 1016.7
20260905194723 57 298 0.0 7.0 0.00 0.08 0.01 95 1016.8
20260905194209 58 291 6.0 7.0 0.00 0.08 0.01 94 1016.8
20260905193656 58 289 2.0 7.0 0.00 0.08 0.01 94 1016.8
20260905193143 59 309 7.0 9.0 0.00 0.08 0.01 94 1016.8
20260905192630 58 301 6.0 9.0 0.00 0.08 0.01 94 1016.8
20260905192117 59 308 5.0 9.0 0.00 0.08 0.01 95 1016.8
20260905191604 59 312 3.0 9.0 0.00 0.08 0.01 95 1016.8
20260905191051 59 235 4.0 9.0 0.00 0.08 0.01 95 1016.8
20260905190538 58 309 4.0 8.0 0.00 0.08 0.01 95 1016.7
20260905185512 58 333 0.0 7.0 0.00 0.09 0.01 95 1016.8
20260905184959 58 298 2.0 7.0 0.00 0.09 0.01 96 1016.7
20260905184446 57 0 0.0 8.0 0.00 0.09 0.01 95 1016.7
20260905183934 57 319 1.0 8.0 0.00 0.09 0.01 95 1016.8
20260905183420 57 317 2.0 8.0 0.00 0.09 0.01 95 1016.8
20260905182907 57 308 1.0 6.0 0.00 0.09 0.01 95 1016.7
20260905182354 57 0 0.0 4.0 0.00 0.09 0.01 95 1016.7
20260905181843 57 0 0.0 4.0 0.00 0.09 0.01 95 1016.7